Overview Statistics Trail Chart Weather Telemetry Raw packets
 

This is the latest recevied weather packets stored in our database for station/object HS5MOA-13. If no packets are shown the sender has not sent any weather packets the latest 10 day(s).

<< 48 49 50 51 52 53 54 >>
Time Temp. Humidity Pressure Rain* Wind** Luminosity Snow
1787826130 34.44° C 5% 971.6 hPa 0 mm - - -
1787825519 34.44° C 5% 971.8 hPa 0 mm - - -
1787824907 34.44° C 5% 971.8 hPa 0 mm - - -
1787824295 35° C 5% 971.6 hPa 0 mm - - -
1787823684 35.56° C 5% 971.5 hPa 0 mm - - -
1787823072 36.11° C 5% 971.5 hPa 0 mm - - -
1787822461 36.67° C 5% 971.6 hPa 0 mm - - -
1787821849 36.11° C 5% 971.6 hPa 0 mm - - -
1787821237 35.56° C 5% 971.7 hPa 0 mm - - -
1787820626 35.56° C 5% 971.7 hPa 0 mm - - -
1787820014 36.11° C 5% 971.7 hPa 0 mm - - -
1787819403 36.67° C 5% 971.8 hPa 0 mm - - -
1787818791 36.67° C 5% 971.8 hPa 0 mm - - -
1787818180 36.67° C 5% 972.1 hPa 0 mm - - -
1787817568 36.67° C 5% 972.1 hPa 0 mm - - -
1787816957 36.67° C 5% 972.2 hPa 0 mm - - -
1787816345 37.22° C 5% 972.3 hPa 0 mm - - -
1787815734 37.78° C 5% 972.4 hPa 0 mm - - -
1787815122 36.67° C 5% 972.6 hPa 0 mm - - -
1787814511 36.67° C 5% 972.6 hPa 0 mm - - -
1787813899 37.22° C 5% 972.8 hPa 0 mm - - -
1787813290 37.78° C 5% 972.9 hPa 0 mm - - -
1787812676 37.22° C 5% 973.2 hPa 0 mm - - -
1787812064 36.67° C 5% 973.4 hPa 0 mm - - -
1787811453 36.67° C 5% 973.5 hPa 0 mm - - -

* Rain latest hour (hover to see other rain measurements)
** Current wind speed in m/s (hover to see current wind gust speed)